HST 1 20580U 90037B 09141.51306896 .00000176 00000-0 13541-4 0 3971 2 20580 28.4707 276.3842 0004229 4.3669 355.7334 15.00804121845843 STS 125 1 34933U 09025A 09144.52759259 -.00095092 00000-0 -98348-3 0 814 2 34933 28.4748 254.4750 0193485 93.9649 76.6379 15.44005973 1955